Location: Newark
(48.6676°N, 6.1917°E)
Time: 02:00:05
(UTC+00:00)

N. Korean satellite - Pass Details

Date: 11 December 2019
Orbit: 454 x 507 km, 97.2° (Epoch: 23 January)

Event Time Altitude Azimuth Distance (km) Brightness Sun altitude
Rises 16:45:50 0° 176° (S) 2,601 10.5 -10.4°
Reaches altitude 10° 16:47:56 10° 180° (S) 1,719 9.6 -10.8°
Maximum altitude 16:51:36 57° 259° (W) 602 7.4 -11.3°
Drops below altitude 10° 16:55:15 10° 340° (NNW) 1,718 9.3 -11.9°
Sets 16:57:22 0° 344° (NNW) 2,599 10.2 -12.2°
